Blue Canyon, CA

12:22 PM PDT on August 20, 2017 (GMT -0700)
Blue Canyon-Nyack

Weather History for KBLU - June, 2014

Change the Weather History Date:

Tuesday, June 17, 2014

  Actual Average Record
Temperature  
Mean Temperature 52 °F -  
Max Temperature 61 °F 70 °F 84 °F (1982)
Min Temperature 45 °F 53 °F 34 °F (2005)
Degree Days  
Heating Degree Days 12    
Growing Degree Days 2 (Base 50)    
Moisture  
Dew Point 26 °F    
Average Humidity 35    
Maximum Humidity 45    
Minimum Humidity 27    
Precipitation  
Precipitation 0.00 in - - ()
Sea Level Pressure  
Sea Level Pressure 29.88 in    
Wind  
Wind Speed 5 mph (SE)    
Max Wind Speed 12 mph    
Max Gust Speed 21 mph    
Visibility 10 miles    
Events      
Averages and records for this station are not official NWS values.
T = Trace of Precipitation, MM = Missing Value Source: NWS Daily Summary

Daily Weather History Graph

Daily Weather History Graph

Search for Another Location

Airport or City:

Trip Planner

Search our weather history database for the weather conditions in past years. The results will help you decide how hot, cold, wet, or windy it might be!

Date:

Astronomy

Jun. 17, 2014 Rise Set
Actual Time 5:35 AM PDT 8:31 PM PDT
Civil Twilight 5:03 AM PDT 9:04 PM PDT
Nautical Twilight 4:22 AM PDT 9:44 PM PDT
Astronomical Twilight 3:35 AM PDT 10:32 PM PDT
Moon No Moon Rise 10:54 AM PDT (6/17)
Length of Visible Light 16h 00m
Length of Day
14h 55m
Waning Gibbous, 72% of the Moon is Illuminated
Jun 17
Waning Gibbous
Jun 19
Last Quarter
Jun 27
New
Jul 5
First Quarter
Jul 12
Full

Hourly Weather History & Observations

Time (PDT) Temp. Windchill Dew Point Humidity Pressure Visibility Wind Dir Wind Speed Gust Speed Precip Events Conditions
12:52 AM 48.0 °F - 21.9 °F 36% 29.81 in 10.0 mi ESE 4.6 mph - N/A   Clear
1:52 AM 46.9 °F - 18.0 °F 32% 29.80 in 10.0 mi SE 5.8 mph - N/A   Clear
2:52 AM 48.0 °F - 15.1 °F 27% 29.79 in 10.0 mi SE 5.8 mph - N/A   Clear
3:52 AM 46.9 °F - 14.0 °F 27% 29.80 in 10.0 mi SE 5.8 mph - N/A   Clear
4:52 AM 45.0 °F 43.5 °F 15.1 °F 30% 29.82 in 10.0 mi NNW 3.5 mph - N/A   Clear
5:52 AM 46.0 °F 43.9 °F 16.0 °F 30% 29.84 in 10.0 mi North 4.6 mph - N/A   Mostly Cloudy
6:52 AM 46.0 °F 44.8 °F 23.0 °F 40% 29.84 in 10.0 mi ENE 3.5 mph - N/A   Clear
7:52 AM 48.9 °F - 27.0 °F 43% 29.85 in 10.0 mi Variable 4.6 mph - N/A   Clear
8:52 AM 52.0 °F - 26.1 °F 37% 29.86 in 10.0 mi NE 3.5 mph - N/A   Clear
9:47 AM 53.6 °F - 21.2 °F 28% 30.00 in 6.0 mi SSW 4.6 mph - N/A   Haze
9:52 AM 54.0 °F - 21.9 °F 29% 29.88 in 8.0 mi SW 5.8 mph - N/A   Partly Cloudy
10:52 AM 55.0 °F - 24.1 °F 30% 29.88 in 10.0 mi Variable 3.5 mph - N/A   Clear
11:52 AM 57.0 °F - 25.0 °F 29% 29.88 in - North - - N/A   Unknown
12:52 PM 57.9 °F - 30.0 °F 35% 29.89 in 10.0 mi Variable 4.6 mph - N/A   Clear
1:52 PM 60.1 °F - 36.0 °F 41% 29.88 in 10.0 mi WSW 11.5 mph 20.7 mph N/A   Clear
2:52 PM 60.1 °F - 35.1 °F 39% 29.88 in 10.0 mi West 9.2 mph 16.1 mph N/A   Partly Cloudy
3:52 PM 60.1 °F - 33.1 °F 36% 29.90 in 10.0 mi West 9.2 mph 18.4 mph N/A   Clear
4:52 PM 59.0 °F - 33.1 °F 38% 29.93 in 10.0 mi West 8.1 mph 17.3 mph N/A   Clear
5:52 PM 59.0 °F - 32.0 °F 36% 29.91 in 10.0 mi Variable 5.8 mph - N/A   Clear
6:52 PM 57.9 °F - 30.9 °F 36% 29.93 in 10.0 mi West 10.4 mph - N/A   Clear
7:52 PM 57.0 °F - 30.9 °F 37% 29.93 in 10.0 mi Variable 5.8 mph - N/A   Clear
8:52 PM 52.0 °F - 30.9 °F 45% 29.95 in 10.0 mi Calm Calm - N/A   Clear
9:52 PM 53.1 °F - 28.9 °F 40% 29.95 in 10.0 mi NE 3.5 mph - N/A   Clear
10:52 PM 53.1 °F - 28.0 °F 38% 29.95 in 10.0 mi NNE 5.8 mph - N/A   Clear
11:52 PM 51.1 °F - 30.0 °F 44% 29.95 in 10.0 mi NE 4.6 mph - N/A   Clear